MDT,Max TemperatureF,Mean TemperatureF,Min TemperatureF,Max Dew PointF,MeanDew PointF,Min DewpointF,Max Humidity, Mean Humidity, Min Humidity, Max Sea Level PressureIn, Mean Sea Level PressureIn, Min Sea Level PressureIn, Max VisibilityMiles, Mean VisibilityMiles, Min VisibilityMiles, Max Wind SpeedMPH, Mean Wind SpeedMPH, Max Gust SpeedMPH,PrecipitationIn, CloudCover, Events, WindDirDegrees
2012-10-1,76,64,51,37,34,30,50,34,21,30.14,30.04,29.94,10,10,10,20,10,,0.00,0,,109
2012-10-2,78,65,52,35,31,29,43,29,16,29.96,29.84,29.69,10,10,10,17,12,,0.00,0,,137
2012-10-3,69,60,51,36,25,15,49,28,14,30.02,29.88,29.73,10,10,10,16,7,20,0.00,0,,43
2012-10-4,65,54,43,25,19,13,36,26,13,30.08,29.99,29.91,10,10,10,14,7,21,0.00,1,,34
2012-10-5,58,48,37,19,16,14,38,26,19,30.13,30.06,29.92,10,10,10,13,6,,0.00,1,,277
2012-10-6,58,46,35,20,13,7,38,26,15,30.19,30.11,30.06,10,10,10,21,10,29,0.00,0,,94
2012-10-7,58,46,34,17,10,5,31,24,16,30.19,30.11,30.05,10,10,10,20,12,,0.00,0,,122
2012-10-8,67,52,37,19,13,10,33,23,13,30.04,29.95,29.83,10,10,10,17,12,,0.00,0,,119
2012-10-9,69,57,45,25,18,14,35,23,13,29.94,29.88,29.80,10,10,10,16,10,,0.00,0,,117
2012-10-10,73,60,46,40,25,15,42,26,19,29.95,29.86,29.75,10,10,10,21,14,23,0.00,1,,126
2012-10-11,75,64,52,45,36,32,49,36,26,29.87,29.76,29.69,10,10,10,20,9,,0.00,3,Rain,111
2012-10-12,61,54,46,52,42,30,94,73,35,29.95,29.82,29.69,10,9,2,20,10,20,0.33,7,Rain,166
2012-10-13,55,50,45,45,42,41,89,77,63,30.23,30.12,29.94,10,10,10,13,10,,0.00,7,,163
2012-10-14,63,54,44,42,38,32,80,57,33,30.30,30.21,30.10,10,10,10,16,10,,0.00,0,Rain,124
2012-10-15,67,56,46,38,35,32,66,47,29,30.08,29.99,29.89,10,10,10,16,11,,0.00,1,,120
2012-10-16,70,58,46,49,38,22,72,50,30,29.96,29.79,29.59,10,10,10,29,13,41,0.00,5,Rain,80
2012-10-17,52,44,35,20,16,12,48,31,22,30.19,30.13,29.97,10,10,10,14,7,18,0.00,0,,105
2012-10-18,59,48,36,21,17,14,45,31,18,30.31,30.23,30.14,10,10,10,16,10,,0.00,0,,114
2012-10-19,65,53,41,26,23,21,45,33,21,30.15,29.99,29.77,10,10,9,17,11,,0.00,1,,114
2012-10-20,71,62,54,39,29,26,54,32,20,29.74,29.62,29.48,10,10,10,14,7,,0.00,7,,160
2012-10-21,61,54,48,41,38,33,67,51,37,29.68,29.63,29.56,10,10,10,13,5,,0.00,6,Rain-Thunderstorm,125
2012-10-22,66,56,46,46,42,36,93,67,34,29.63,29.55,29.43,10,9,4,33,8,44,0.33,8,Rain-Thunderstorm,271
2012-10-23,46,39,32,45,37,30,100,92,70,30.37,29.76,29.57,10,7,1,22,8,28,0.86,7,Rain-Snow,7
2012-10-24,43,38,33,34,32,25,100,87,48,30.11,30.00,29.96,10,9,2,9,5,,0.03,5,Snow,352
2012-10-25,36,32,28,32,31,25,100,94,78,30.46,30.17,30.08,10,4,0,12,5,,0.55,7,Fog-Snow,98
2012-10-26,37,30,24,25,23,19,86,73,60,30.53,30.39,30.23,10,10,10,18,10,18,0.00,2,,75
2012-10-27,53,42,31,33,27,22,70,57,39,30.24,30.18,30.12,10,10,10,9,4,,0.00,5,,123
2012-10-28,62,54,43,39,33,29,60,47,34,30.20,30.13,30.01,10,10,10,9,5,,0.00,4,,141
2012-10-29,66,56,45,37,34,32,64,47,28,30.16,30.08,30.02,10,10,10,12,5,,0.00,0,,75
2012-10-30,67,54,43,39,33,31,61,45,28,30.13,30.05,30.01,10,10,10,18,8,16,0.00,0,,84
2012-10-31,71,58,45,35,31,29,53,40,21,30.08,29.96,29.85,10,10,10,21,14,,0.00,1,,129